Location: Wellington
(41.3000°S, 174.7830°E)
Time: 20:14:59
(UTC+13:00)

ISS - Pass Details

Date: 30 January 2019
Orbit: 403 x 411 km, 51.6° (Epoch: 18 February)

Event Time Altitude Azimuth Distance (km) Brightness Sun altitude
Exits shadow 05:26:07 15° 317° (NW) 1,228 -2.0 -10.1°
Maximum altitude 05:28:47 68° 38° (NE) 451 -3.6 -9.7°
Drops below altitude 10° 05:32:08 10° 121° (ESE) 1,497 0.7 -9.2°
Sets 05:34:15 0° 124° (ESE) 2,363 2.6 -8.9°
